This is the latest recevied weather packets stored in our database for station/object GW1597. If no packets are shown the sender has not sent any weather packets the latest 10 day(s).
| Time | Temp. | Humidity | Pressure | Rain* | Wind** | Luminosity | Snow |
|---|---|---|---|---|---|---|---|
| 1777645821 | 10.56° C | 78% | 988.4 hPa | 0 mm | - | - | - |
| 1777645450 | 10° C | 81% | 988.1 hPa | 0 mm | - | - | - |
| 1777643291 | 8.89° C | 85% | 988.8 hPa | 0 mm | - | - | - |
| 1777639339 | 5.56° C | 94% | 988.8 hPa | 0 mm | - | - | - |
| 1777638989 | 5° C | 94% | 988.8 hPa | 0 mm | - | - | - |
| 1777638616 | 4.44° C | 94% | 988.8 hPa | 0 mm | - | - | - |
| 1777630365 | 3.89° C | 95% | 989.1 hPa | 0 mm | - | - | - |
| 1777629263 | 3.89° C | 95% | 989.1 hPa | 0 mm | - | - | - |
| 1777628902 | 3.89° C | 95% | 989.1 hPa | 0 mm | - | - | - |
| 1777626758 | 4.44° C | 95% | 989.5 hPa | 0 mm | - | - | - |
| 1777625668 | 4.44° C | 95% | 989.5 hPa | 0 mm | - | - | - |
| 1777624612 | 4.44° C | 95% | 989.5 hPa | 0 mm | - | - | - |
| 1777624253 | 4.44° C | 95% | 989.5 hPa | 0 mm | - | - | - |
| 1777623876 | 4.44° C | 95% | 989.5 hPa | 0 mm | - | - | - |
| 1777623144 | 4.44° C | 95% | 989.5 hPa | 0 mm | - | - | - |
| 1777621373 | 3.89° C | 95% | 989.5 hPa | 0 mm | - | - | - |
| 1777620987 | 3.89° C | 95% | 989.5 hPa | 0 mm | - | - | - |
| 1777618453 | 3.89° C | 95% | 989.5 hPa | 0 mm | - | - | - |
| 1777615948 | 3.89° C | 95% | 990.1 hPa | 0 mm | - | - | - |
| 1777613420 | 4.44° C | 95% | 990.1 hPa | 0 mm | - | - | - |
| 1777605170 | 5.56° C | 93% | 990.1 hPa | 0 mm | - | - | - |
| 1777604801 | 5.56° C | 93% | 990.5 hPa | 0 mm | - | - | - |
| 1777602278 | 6.11° C | 91% | 990.1 hPa | 0 mm | - | - | - |
| 1777600495 | 6.67° C | 90% | 989.8 hPa | 0 mm | - | - | - |
| 1777598331 | 7.78° C | 87% | 989.5 hPa | 0 mm | - | - | - |
* Rain since midnight (hover to see other rain measurements)
** Current wind speed in m/s (hover to see current wind gust speed)